Welcome to Northern Hawkes Bay. New Zealand.
PWS Header
      nz Flag



Hit Counter


W3C Valid W3C Valid logo


    Wairoa

Select any of the Stations below to visit their websites.










Historic Data from Weather Underground
Select the location of interest below. Wairoa is the default. Please have patience, this Data is slow to load in.
Northern Hawkes Bay Historical Data
Daily Summary for July 10, 2017 Units:  English    Metric   Both
« Previous Day
Next Day »
Daily Weekly Monthly Yearly Custom
  High: Low: Average:
Temperature: 61 °F 42.1 °F 50.4 °F
Dew Point: 52.2 °F 41.7 °F 47.8 °F
Humidity: 99% 63% 91%
Wind Speed: 17.4mph 0mph 4mph
Wind Gust: 25.9mph - -
Wind- - West
Pressure: 29.9 in 29.6 in -
Precipitation: 0.35 in    
Historical Graphs
 
 
Tabular Data for July 10, 2017
Time Temperature Dew Point Pressure Wind Wind Speed Wind Gust Humidity Rainfall Rate (Hourly) solar
00:01 51.4 °F 50.5 °F 29.7 in SSW 0.7 mph 5.4 mph 97% 0.08 in 0 W/m2
00:06 51.4 °F 50.9 °F 29.7 in WSW 1.6 mph 3.1 mph 98% 0.08 in 0 W/m2
00:11 51.3 °F 50.7 °F 29.7 in Calm   2.2 mph 98% 0.07 in 0 W/m2
00:16 51.3 °F 50.7 °F 29.6 in West 0.7 mph 2.2 mph 98% 0.06 in 0 W/m2
00:21 51.3 °F 50.7 °F 29.6 in West 0.7 mph 2.2 mph 98% 0.06 in 0 W/m2
00:26 51.1 °F 50.5 °F 29.7 in Calm   2.2 mph 98% 0.06 in 0 W/m2
00:31 50.9 °F 50.4 °F 29.7 in Calm   2.2 mph 98% 0.06 in 0 W/m2
00:36 50.9 °F 50.4 °F 29.7 in Calm   0.7 mph 98% 0.04 in 0 W/m2
00:41 50.9 °F 50.4 °F 29.7 in Calm   0.7 mph 98% 0.02 in 0 W/m2
00:46 50.9 °F 50.4 °F 29.7 in North 0.7 mph 1.6 mph 98% 0.02 in 0 W/m2
00:51 50.9 °F 50.4 °F 29.7 in North 0.7 mph 1.6 mph 98% 0.01 in 0 W/m2
00:56 50.7 °F 50.2 °F 29.7 in Calm   1.6 mph 98% 0 in 0 W/m2
01:01 50.7 °F 50.2 °F 29.7 in NE 0.7 mph 2.2 mph 98% 0 in 0 W/m2
01:06 50.7 °F 50.2 °F 29.7 in NE 0.7 mph 2.2 mph 98% 0 in 0 W/m2
01:11 50.7 °F 50.5 °F 29.7 in Calm   2.2 mph 99% 0 in 0 W/m2
01:16 50.7 °F 50.5 °F 29.7 in NE 1.6 mph 3.1 mph 99% 0 in 0 W/m2
01:21 50.7 °F 50.5 °F 29.7 in NE 1.6 mph 3.1 mph 99% 0 in 0 W/m2
01:26 50.9 °F 50.5 °F 29.7 in NNE 0.7 mph 3.1 mph 99% 0 in 0 W/m2
01:31 50.9 °F 50.5 °F 29.7 in NNW 1.6 mph 2.2 mph 99% 0 in 0 W/m2
01:36 50.9 °F 50.5 °F 29.7 in West 2.2 mph 3.8 mph 99% 0 in 0 W/m2
01:41 51.6 °F 51.4 °F 29.7 in SSW 6 mph 13.6 mph 99% 0 in 0 W/m2
01:46 52 °F 51.4 °F 29.7 in SSW 10.7 mph 13.6 mph 98% 0 in 0 W/m2
01:51 52.2 °F 51.6 °F 29.7 in South 9.8 mph 13 mph 98% 0 in 0 W/m2
01:56 52.3 °F 51.8 °F 29.7 in South 5.4 mph 14.5 mph 98% 0.01 in 0 W/m2
02:01 52.3 °F 51.8 °F 29.7 in South 4.5 mph 14.5 mph 98% 0.01 in 0 W/m2
02:06 52.7 °F 52.2 °F 29.7 in South 5.4 mph 13.6 mph 98% 0.02 in 0 W/m2
02:11 52.7 °F 52 °F 29.7 in South 6.9 mph 13.6 mph 97% 0.02 in 0 W/m2
02:16 52.9 °F 51.8 °F 29.7 in South 9.2 mph 14.5 mph 96% 0.02 in 0 W/m2
02:21 53.1 °F 51.6 °F 29.7 in South 7.6 mph 15.9 mph 95% 0.02 in 0 W/m2
02:26 53.1 °F 51.6 °F 29.7 in South 12.1 mph 15.9 mph 95% 0.02 in 0 W/m2
02:44 53.2 °F 51.1 °F 29.7 in South 8.3 mph 12.1 mph 92% 0.02 in 0 W/m2
02:49 53.2 °F 51.1 °F 29.7 in South 6 mph 12.1 mph 92% 0.02 in 0 W/m2
02:54 53.1 °F 50.5 °F 29.7 in South 4.5 mph 10.7 mph 91% 0.01 in 0 W/m2
02:59 53.1 °F 50.5 °F 29.7 in South 5.4 mph 9.2 mph 91% 0.01 in 0 W/m2
03:04 53.1 °F 50.5 °F 29.7 in SSW 3.8 mph 7.6 mph 91% 0 in 0 W/m2
03:09 52.9 °F 50.4 °F 29.7 in SSW 4.5 mph 6.9 mph 91% 0 in 0 W/m2
03:14 52.7 °F 50.4 °F 29.7 in SW 7.6 mph 16.8 mph 92% 0 in 0 W/m2
03:19 52.3 °F 50.4 °F 29.7 in SW 13 mph 17.4 mph 93% 0 in 0 W/m2
03:24 52.2 °F 50.5 °F 29.7 in SW 11.4 mph 17.4 mph 94% 0 in 0 W/m2
03:29 52.2 °F 50.7 °F 29.7 in SW 10.7 mph 18.3 mph 95% 0 in 0 W/m2
03:34 52.3 °F 51.1 °F 29.7 in SW 14.5 mph 21.3 mph 95% 0 in 0 W/m2
03:39 52.2 °F 50.7 °F 29.7 in SW 13 mph 21.3 mph 95% 0 in 0 W/m2
03:44 52 °F 50.5 °F 29.7 in SW 15.9 mph 25.9 mph 95% 0 in 0 W/m2
03:49 51.6 °F 50.5 °F 29.7 in WSW 14.5 mph 25.9 mph 96% 0 in 0 W/m2
03:54 51.4 °F 50.2 °F 29.7 in WSW 17.4 mph 25.1 mph 95% 0 in 0 W/m2
03:59 51.3 °F 49.8 °F 29.7 in WSW 10.7 mph 25.1 mph 95% 0 in 0 W/m2
04:04 51.1 °F 50 °F 29.7 in WSW 11.4 mph 22.1 mph 96% 0 in 0 W/m2
04:09 50.9 °F 49.8 °F 29.7 in West 9.8 mph 20.6 mph 96% 0 in 0 W/m2
04:14 50.9 °F 50.2 °F 29.7 in WSW 12.1 mph 20.6 mph 97% 0 in 0 W/m2
04:19 50.9 °F 50.2 °F 29.7 in WSW 15.2 mph 23.5 mph 97% 0 in 0 W/m2
04:24 50.9 °F 50.2 °F 29.7 in WSW 11.4 mph 23.5 mph 97% 0.01 in 0 W/m2
04:29 50.9 °F 50.2 °F 29.7 in SW 11.4 mph 23.5 mph 97% 0.01 in 0 W/m2
04:34 50.9 °F 50.2 °F 29.7 in SW 11.4 mph 21.3 mph 97% 0.01 in 0 W/m2
04:39 51.1 °F 50 °F 29.7 in WSW 9.8 mph 21.3 mph 96% 0.01 in 0 W/m2
04:44 51.1 °F 50 °F 29.7 in WSW 11.4 mph 19 mph 96% 0.01 in 0 W/m2
04:49 51.1 °F 49.6 °F 29.7 in WSW 13 mph 19 mph 95% 0.01 in 0 W/m2
04:54 50.9 °F 49.5 °F 29.7 in WSW 13 mph 20.6 mph 95% 0.01 in 0 W/m2
04:59 50.9 °F 49.5 °F 29.7 in WSW 13 mph 20.6 mph 95% 0.02 in 0 W/m2
05:04 51.1 °F 49.6 °F 29.7 in WSW 7.6 mph 16.8 mph 95% 0.02 in 0 W/m2
05:09 51.3 °F 49.6 °F 29.7 in WSW 13 mph 16.8 mph 94% 0.02 in 0 W/m2
05:14 51.4 °F 49.8 °F 29.7 in West 11.4 mph 19 mph 94% 0.02 in 0 W/m2
05:19 51.4 °F 49.8 °F 29.7 in WSW 8.3 mph 19 mph 94% 0.01 in 0 W/m2
05:24 51.6 °F 50 °F 29.7 in WSW 9.8 mph 15.9 mph 94% 0.01 in 0 W/m2
05:29 51.6 °F 49.6 °F 29.7 in WSW 8.3 mph 17.4 mph 93% 0.01 in 0 W/m2
05:34 51.6 °F 49.6 °F 29.7 in WSW 10.7 mph 17.4 mph 93% 0.01 in 0 W/m2
05:39 51.6 °F 49.5 °F 29.7 in WSW 5.4 mph 17.4 mph 92% 0.01 in 0 W/m2
05:49 51.3 °F 48.9 °F 29.7 in West 6 mph 14.5 mph 92% 0.01 in 0 W/m2
05:54 51.3 °F 48.9 °F 29.7 in West 5.4 mph 14.5 mph 92% 0.01 in 0 W/m2
05:59 51.1 °F 48.7 °F 29.7 in WSW 5.4 mph 12.1 mph 92% 0 in 0 W/m2
06:04 51.1 °F 48.7 °F 29.8 in WSW 7.6 mph 12.1 mph 92% 0 in 0 W/m2
06:14 51.3 °F 48.7 °F 29.8 in WSW 7.6 mph 13 mph 91% 0 in 0 W/m2
06:19 51.3 °F 48.7 °F 29.8 in WSW 6.9 mph 13 mph 91% 0 in 0 W/m2
06:24 51.3 °F 48.4 °F 29.8 in West 7.6 mph 15.2 mph 90% 0 in 0 W/m2
06:29 51.3 °F 48.4 °F 29.8 in WNW 9.2 mph 15.2 mph 90% 0 in 0 W/m2
06:34 51.3 °F 48 °F 29.8 in WNW 9.2 mph 15.2 mph 89% 0 in 0 W/m2
06:39 51.3 °F 48 °F 29.8 in WSW 12.1 mph 16.8 mph 89% 0 in 0 W/m2
06:44 51.3 °F 48 °F 29.8 in WSW 8.3 mph 16.8 mph 89% 0 in 0 W/m2
06:49 51.3 °F 48 °F 29.8 in West 6.9 mph 16.8 mph 89% 0 in 0 W/m2
06:54 51.3 °F 48 °F 29.8 in West 6 mph 14.5 mph 89% 0 in 0 W/m2
06:59 51.3 °F 48 °F 29.8 in West 6 mph 14.5 mph 89% 0 in 0 W/m2
07:04 51.3 °F 48 °F 29.8 in WSW 3.8 mph 13.6 mph 89% 0 in 0 W/m2
07:21 51.1 °F 48 °F 29.8 in WSW 6 mph 12.1 mph 89% 0 in 0 W/m2
07:26 51.1 °F 48 °F 29.8 in West 8.3 mph 11.4 mph 89% 0 in 0 W/m2
07:31 51.1 °F 48 °F 29.8 in West 6.9 mph 11.4 mph 89% 0 in 0 W/m2
07:36 50.9 °F 48.4 °F 29.8 in West 9.8 mph 13 mph 91% 0.01 in 0 W/m2
07:41 50.5 °F 48.6 °F 29.8 in WSW 6.9 mph 13 mph 93% 0.05 in 0 W/m2
07:46 50.4 °F 48.7 °F 29.8 in WSW 5.4 mph 13 mph 94% 0.05 in 0 W/m2
07:51 50.4 °F 48.7 °F 29.8 in West 5.4 mph 11.4 mph 94% 0.05 in 0 W/m2
07:56 50.5 °F 49.3 °F 29.8 in WSW 5.4 mph 11.4 mph 95% 0.05 in 0 W/m2
08:01 50.5 °F 49.3 °F 29.8 in West 6 mph 13 mph 95% 0.05 in 5 W/m2
08:06 50.7 °F 49.1 °F 29.8 in West 6 mph 14.5 mph 94% 0.05 in 10 W/m2
08:11 50.9 °F 49.3 °F 29.8 in West 3.1 mph 14.5 mph 94% 0.05 in 14 W/m2
08:16 50.9 °F 49.3 °F 29.8 in West 3.8 mph 9.2 mph 94% 0.05 in 16 W/m2
08:21 51.1 °F 49.5 °F 29.8 in West 3.1 mph 8.3 mph 94% 0.05 in 18 W/m2
08:26 51.1 °F 49.5 °F 29.8 in West 2.2 mph 8.3 mph 94% 0.06 in 21 W/m2
08:31 51.3 °F 49.6 °F 29.8 in West 6.9 mph 8.3 mph 94% 0.06 in 25 W/m2
08:36 51.3 °F 49.3 °F 29.8 in West 4.5 mph 8.3 mph 93% 0.05 in 30 W/m2
08:41 51.4 °F 49.5 °F 29.8 in West 4.5 mph 9.8 mph 93% 0.01 in 31 W/m2
08:46 51.4 °F 49.5 °F 29.8 in West 5.4 mph 10.7 mph 93% 0.01 in 28 W/m2
09:03 51.6 °F 49.5 °F 29.8 in SW 3.8 mph 9.2 mph 92% 0.01 in 37 W/m2
09:08 51.6 °F 49.1 °F 29.8 in SW 7.6 mph 10.7 mph 91% 0.01 in 42 W/m2
09:13 51.6 °F 49.1 °F 29.8 in WSW 3.1 mph 10.7 mph 91% 0.01 in 40 W/m2
09:18 51.4 °F 48.9 °F 29.8 in WSW 7.6 mph 10.7 mph 91% 0.01 in 46 W/m2
09:23 51.3 °F 48.9 °F 29.8 in West 3.8 mph 10.7 mph 92% 0.01 in 44 W/m2
09:28 51.3 °F 49.3 °F 29.8 in WSW 3.8 mph 9.8 mph 93% 0 in 45 W/m2
09:33 51.3 °F 49.3 °F 29.8 in WSW 4.5 mph 8.3 mph 93% 0 in 44 W/m2
09:38 51.3 °F 49.3 °F 29.8 in West 3.8 mph 8.3 mph 93% 0 in 37 W/m2
09:43 51.3 °F 49.3 °F 29.8 in West 3.1 mph 6.9 mph 93% 0 in 35 W/m2
09:48 51.3 °F 49.3 °F 29.8 in West 1.6 mph 10.7 mph 93% 0 in 48 W/m2
09:53 51.3 °F 49.3 °F 29.9 in West 2.2 mph 10.7 mph 93% 0 in 67 W/m2
09:58 51.4 °F 49.5 °F 29.8 in West 1.6 mph 5.4 mph 93% 0 in 82 W/m2
10:03 51.4 °F 49.5 °F 29.8 in West 2.2 mph 4.5 mph 93% 0.01 in 74 W/m2
10:08 51.4 °F 49.5 °F 29.9 in West 3.8 mph 7.6 mph 93% 0.01 in 104 W/m2
10:13 51.4 °F 49.5 °F 29.9 in West 5.4 mph 8.3 mph 93% 0.02 in 69 W/m2
10:18 51.3 °F 49.3 °F 29.9 in West 2.2 mph 8.3 mph 93% 0.04 in 23 W/m2
10:23 51.1 °F 49.1 °F 29.9 in SW 1.6 mph 8.3 mph 93% 0.07 in 9 W/m2
10:28 50.7 °F 49.1 °F 29.9 in SSW 3.8 mph 6.9 mph 94% 0.11 in 9 W/m2
10:33 50.2 °F 48.6 °F 29.9 in SSW 5.4 mph 7.6 mph 94% 0.14 in 11 W/m2
10:38 49.5 °F 48 °F 29.9 in SW 6 mph 9.8 mph 95% 0.17 in 16 W/m2
10:43 49.1 °F 48 °F 29.9 in SW 4.5 mph 10.7 mph 96% 0.18 in 23 W/m2
10:48 48.7 °F 47.7 °F 29.9 in SW 1.6 mph 10.7 mph 96% 0.21 in 32 W/m2
10:53 48.7 °F 47.7 °F 29.9 in Calm   6 mph 96% 0.21 in 41 W/m2
10:58 48.7 °F 47.7 °F 29.9 in Calm   2.2 mph 96% 0.22 in 45 W/m2
11:03 48.9 °F 48 °F 29.9 in Calm   0.7 mph 97% 0.21 in 49 W/m2
11:08 49.1 °F 48.4 °F 29.9 in ENE 0.7 mph 0.7 mph 97% 0.21 in 54 W/m2
11:13 49.3 °F 48.6 °F 29.9 in Calm   1.6 mph 97% 0.2 in 48 W/m2
11:18 49.3 °F 48.6 °F 29.9 in East 0.7 mph 1.6 mph 97% 0.2 in 50 W/m2
11:23 49.5 °F 48.6 °F 29.9 in Calm   2.2 mph 97% 0.17 in 76 W/m2
11:28 49.8 °F 48.9 °F 29.9 in Calm   2.2 mph 97% 0.13 in 91 W/m2
11:33 50 °F 48.9 °F 29.9 in West 0.7 mph 2.2 mph 96% 0.09 in 97 W/m2
11:38 50.2 °F 49.1 °F 29.9 in WSW 1.6 mph 2.2 mph 96% 0.07 in 95 W/m2
11:43 50.5 °F 49.6 °F 29.9 in WSW 3.1 mph 3.8 mph 97% 0.06 in 90 W/m2
11:48 50.5 °F 49.5 °F 29.9 in WSW 0.7 mph 3.8 mph 96% 0.02 in 86 W/m2
11:53 50.7 °F 49.6 °F 29.9 in WSW 0.7 mph 3.8 mph 96% 0.02 in 67 W/m2
11:58 50.7 °F 49.6 °F 29.8 in WNW 1.6 mph 2.2 mph 96% 0.01 in 79 W/m2
12:03 50.9 °F 49.8 °F 29.8 in Calm   2.2 mph 96% 0.01 in 97 W/m2
12:08 51.3 °F 50.2 °F 29.8 in Calm   2.2 mph 96% 0.01 in 114 W/m2
12:13 51.4 °F 50.4 °F 29.8 in WSW 0.7 mph 2.2 mph 96% 0.01 in 146 W/m2
12:18 52 °F 50.5 °F 29.8 in Calm   2.2 mph 95% 0 in 145 W/m2
12:23 52.5 °F 51.1 °F 29.8 in WNW 1.6 mph 3.1 mph 95% 0 in 159 W/m2
12:28 53.1 °F 51.4 °F 29.8 in NW 3.1 mph 3.8 mph 94% 0.01 in 166 W/m2
12:33 53.2 °F 51.3 °F 29.8 in NW 4.5 mph 6 mph 93% 0.01 in 180 W/m2
12:38 52.7 °F 50.4 °F 29.9 in NW 3.8 mph 6 mph 92% 0.01 in 173 W/m2
12:43 52.5 °F 50 °F 29.8 in NNW 3.1 mph 6 mph 91% 0.01 in 170 W/m2
12:48 52.5 °F 49.6 °F 29.8 in NNW 3.1 mph 5.4 mph 90% 0.01 in 155 W/m2
12:53 52.9 °F 50 °F 29.8 in NNW 1.6 mph 5.4 mph 90% 0.01 in 154 W/m2
12:58 53.2 °F 50.2 °F 29.8 in NNW 1.6 mph 5.4 mph 89% 0.01 in 150 W/m2
13:03 53.4 °F 50.4 °F 29.8 in NNW 0.7 mph 3.8 mph 89% 0.01 in 130 W/m2
13:08 53.6 °F 49.8 °F 29.8 in NW 1.6 mph 4.5 mph 87% 0.01 in 126 W/m2
13:13 54 °F 50.2 °F 29.8 in NW 3.1 mph 4.5 mph 87% 0.01 in 157 W/m2
13:18 54.9 °F 50.7 °F 29.8 in NW 2.2 mph 4.5 mph 86% 0.01 in 157 W/m2
13:23 55.4 °F 51.1 °F 29.8 in WNW 1.6 mph 4.5 mph 85% 0.01 in 171 W/m2
13:28 55.2 °F 50.2 °F 29.8 in WNW 1.6 mph 4.5 mph 83% 0 in 127 W/m2
13:33 55 °F 49.6 °F 29.8 in WNW 1.6 mph 5.4 mph 82% 0 in 160 W/m2
13:38 55 °F 49.3 °F 29.8 in WSW 3.8 mph 5.4 mph 81% 0 in 189 W/m2
13:43 55.2 °F 49.5 °F 29.8 in SW 3.1 mph 6 mph 81% 0 in 196 W/m2
13:48 55 °F 49.3 °F 29.8 in SW 3.1 mph 6 mph 81% 0 in 157 W/m2
13:53 55 °F 49.3 °F 29.8 in SW 3.1 mph 6 mph 81% 0 in 136 W/m2
13:58 55.2 °F 49.3 °F 29.8 in SSW 2.2 mph 6 mph 80% 0 in 131 W/m2
14:03 55.8 °F 49.5 °F 29.8 in SW 3.8 mph 5.4 mph 79% 0 in 160 W/m2
14:08 56.3 °F 49.5 °F 29.8 in WSW 3.8 mph 5.4 mph 78% 0 in 157 W/m2
14:13 56.5 °F 49.5 °F 29.8 in SW 3.8 mph 6.9 mph 77% 0 in 205 W/m2
14:18 57 °F 49.8 °F 29.8 in WSW 4.5 mph 6.9 mph 77% 0 in 185 W/m2
14:23 57.4 °F 49.5 °F 29.8 in WSW 4.5 mph 6 mph 75% 0 in 240 W/m2
14:28 57.9 °F 49.6 °F 29.8 in SW 4.5 mph 6 mph 74% 0 in 229 W/m2
14:33 57.6 °F 49.3 °F 29.8 in SW 4.5 mph 6 mph 74% 0 in 220 W/m2
14:38 57.6 °F 49.3 °F 29.8 in SW 4.5 mph 6.9 mph 74% 0 in 184 W/m2
14:43 57 °F 49.3 °F 29.8 in SW 1.6 mph 6.9 mph 75% 0 in 174 W/m2
14:48 57.9 °F 49.6 °F 29.8 in WSW 2.2 mph 6.9 mph 74% 0 in 198 W/m2
14:53 58.5 °F 49.8 °F 29.8 in WSW 3.1 mph 5.4 mph 73% 0 in 189 W/m2
14:58 58.1 °F 49.1 °F 29.8 in SW 0.7 mph 6.9 mph 72% 0 in 182 W/m2
15:03 59.4 °F 50 °F 29.8 in SW 1.6 mph 6.9 mph 71% 0 in 174 W/m2
15:08 59.9 °F 49.3 °F 29.8 in SW 3.8 mph 4.5 mph 68% 0 in 165 W/m2
15:13 59.2 °F 48.2 °F 29.8 in SW 3.1 mph 5.4 mph 67% 0 in 158 W/m2
15:18 59 °F 48.6 °F 29.8 in WSW 3.1 mph 5.4 mph 68% 0 in 148 W/m2
15:23 58.6 °F 48.9 °F 29.8 in WSW 1.6 mph 4.5 mph 70% 0 in 139 W/m2
15:28 58.3 °F 48.2 °F 29.8 in WSW 4.5 mph 6 mph 69% 0 in 128 W/m2
15:33 57.7 °F 48.4 °F 29.8 in WSW 3.1 mph 6 mph 71% 0 in 121 W/m2
15:38 57.4 °F 48 °F 29.8 in WSW 1.6 mph 6 mph 71% 0 in 47 W/m2
15:43 56.8 °F 48.4 °F 29.8 in WSW 1.6 mph 4.5 mph 73% 0 in 63 W/m2
15:48 57.9 °F 49.3 °F 29.8 in WSW 0.7 mph 3.8 mph 73% 0 in 89 W/m2
15:53 58.8 °F 49.1 °F 29.8 in West 1.6 mph 3.1 mph 70% 0 in 79 W/m2
15:58 58.6 °F 48.6 °F 29.8 in WSW 1.6 mph 3.1 mph 69% 0 in 69 W/m2
16:03 59.2 °F 48.6 °F 29.8 in WSW 0.7 mph 3.1 mph 68% 0 in 61 W/m2
16:08 59 °F 47.7 °F 29.8 in Calm   3.8 mph 66% 0 in 52 W/m2
16:13 59.5 °F 48.9 °F 29.8 in Calm   3.8 mph 68% 0 in 45 W/m2
16:18 60.6 °F 49.6 °F 29.8 in Calm   2.2 mph 67% 0 in 39 W/m2
16:23 60.8 °F 48.6 °F 29.8 in Calm   1.6 mph 64% 0 in 35 W/m2
16:28 61 °F 48.7 °F 29.8 in Calm   0.7 mph 64% 0 in 29 W/m2
16:33 61 °F 48.4 °F 29.8 in Calm   0.7 mph 63% 0 in 23 W/m2
16:38 60.6 °F 48.4 °F 29.8 in Calm   1.6 mph 64% 0 in 18 W/m2
16:43 59.4 °F 47.1 °F 29.8 in Calm   1.6 mph 64% 0 in 9 W/m2
16:48 56.7 °F 46.2 °F 29.8 in Calm   0.7 mph 68% 0 in 5 W/m2
16:53 54.7 °F 45.9 °F 29.8 in Calm     72% 0 in 3 W/m2
16:58 53.2 °F 45.1 °F 29.8 in Calm     74% 0 in 1 W/m2
17:04 51.8 °F 44.8 °F 29.8 in Calm   0.7 mph 77% 0 in 0 W/m2
17:09 51.1 °F 45.5 °F 29.8 in Calm   0.7 mph 81% 0 in 0 W/m2
17:14 50.4 °F 45.3 °F 29.8 in Calm     83% 0 in 0 W/m2
17:19 49.8 °F 45.9 °F 29.8 in Calm     86% 0 in 0 W/m2
17:24 49.5 °F 45.9 °F 29.8 in North 0.7 mph 1.6 mph 87% 0 in 0 W/m2
17:29 49.3 °F 45.9 °F 29.8 in North 0.7 mph 1.6 mph 88% 0 in 0 W/m2
17:34 48.7 °F 45.7 °F 29.8 in NNW 1.6 mph 2.2 mph 89% 0 in 0 W/m2
17:39 48.4 °F 45.7 °F 29.8 in NW 1.6 mph 3.1 mph 90% 0 in 0 W/m2
17:44 47.8 °F 45.7 °F 29.8 in NW 1.6 mph 3.1 mph 92% 0 in 0 W/m2
17:49 47.8 °F 45.9 °F 29.8 in NW 0.7 mph 3.1 mph 93% 0 in 0 W/m2
17:54 47.5 °F 45.9 °F 29.8 in NNW 0.7 mph 3.1 mph 94% 0 in 0 W/m2
17:59 47.1 °F 45.5 °F 29.8 in North 0.7 mph 1.6 mph 94% 0 in 0 W/m2
18:04 46.9 °F 45.7 °F 29.9 in North 1.6 mph 2.2 mph 95% 0 in 0 W/m2
18:09 46.8 °F 45.3 °F 29.9 in NNW 1.6 mph 2.2 mph 95% 0 in 0 W/m2
18:14 46.6 °F 45.1 °F 29.9 in NNW 1.6 mph 3.1 mph 95% 0 in 0 W/m2
18:19 46.6 °F 45.1 °F 29.9 in NW 2.2 mph 3.1 mph 95% 0 in 0 W/m2
18:24 46.9 °F 45.9 °F 29.9 in NW 2.2 mph 3.8 mph 96% 0 in 0 W/m2
18:29 46.8 °F 45.7 °F 29.9 in NW 1.6 mph 3.8 mph 96% 0 in 0 W/m2
18:34 46.8 °F 45.7 °F 29.9 in NW 1.6 mph 3.1 mph 96% 0 in 0 W/m2
18:39 46.6 °F 45.9 °F 29.9 in NNW 1.6 mph 3.1 mph 97% 0 in 0 W/m2
18:44 46.4 °F 45.7 °F 29.9 in NNW 1.6 mph 2.2 mph 97% 0 in 0 W/m2
18:49 46.2 °F 45.3 °F 29.9 in North 1.6 mph 2.2 mph 97% 0 in 0 W/m2
18:54 46.2 °F 45.3 °F 29.9 in North 1.6 mph 2.2 mph 97% 0 in 0 W/m2
18:59 46 °F 45.1 °F 29.9 in North 1.6 mph 2.2 mph 97% 0 in 0 W/m2
19:04 46 °F 45.1 °F 29.9 in North 1.6 mph 3.1 mph 97% 0 in 0 W/m2
19:09 45.9 °F 45.1 °F 29.9 in NNW 2.2 mph 3.1 mph 97% 0 in 0 W/m2
19:14 45.9 °F 45.1 °F 29.9 in NW 2.2 mph 3.1 mph 97% 0 in 0 W/m2
19:19 45.7 °F 45 °F 29.9 in NW 1.6 mph 3.1 mph 97% 0 in 0 W/m2
19:24 45.5 °F 44.8 °F 29.9 in NNW 2.2 mph 3.1 mph 97% 0 in 0 W/m2
19:29 45.3 °F 44.4 °F 29.9 in North 1.6 mph 3.1 mph 97% 0 in 0 W/m2
19:34 45.1 °F 44.2 °F 29.9 in NNW 0.7 mph 3.1 mph 97% 0 in 0 W/m2
19:39 45 °F 44.2 °F 29.9 in North 3.1 mph 3.8 mph 97% 0 in 0 W/m2
19:44 45 °F 44.2 °F 29.9 in NNW 3.8 mph 5.4 mph 97% 0 in 0 W/m2
19:49 44.8 °F 44.1 °F 29.9 in NNW 3.1 mph 5.4 mph 97% 0 in 0 W/m2
19:54 44.8 °F 44.1 °F 29.9 in NNW 2.2 mph 5.4 mph 97% 0 in 0 W/m2
19:59 44.8 °F 44.1 °F 29.9 in NNW 1.6 mph 4.5 mph 97% 0 in 0 W/m2
20:04 44.8 °F 44.1 °F 29.9 in NNW 3.1 mph 4.5 mph 97% 0 in 0 W/m2
20:09 44.6 °F 43.9 °F 29.9 in NW 3.8 mph 4.5 mph 97% 0 in 0 W/m2
20:14 44.4 °F 43.9 °F 29.9 in NNW 3.1 mph 4.5 mph 98% 0 in 0 W/m2
20:19 44.2 °F 43.7 °F 29.9 in North 3.1 mph 4.5 mph 98% 0 in 0 W/m2
20:24 44.1 °F 43.5 °F 29.9 in NNW 3.1 mph 4.5 mph 98% 0 in 0 W/m2
20:29 44.1 °F 43.5 °F 29.9 in NW 3.1 mph 4.5 mph 98% 0 in 0 W/m2
20:34 43.9 °F 43.3 °F 29.9 in NW 3.1 mph 4.5 mph 98% 0 in 0 W/m2
20:39 43.9 °F 43.3 °F 29.9 in NW 3.1 mph 4.5 mph 98% 0 in 0 W/m2
20:44 43.9 °F 43.3 °F 29.9 in NW 3.1 mph 5.4 mph 98% 0 in 0 W/m2
20:49 43.7 °F 43.2 °F 29.9 in NNW 3.1 mph 5.4 mph 98% 0 in 0 W/m2
20:54 43.7 °F 43.2 °F 29.9 in NNW 3.1 mph 5.4 mph 98% 0 in 0 W/m2
20:59 43.7 °F 43.2 °F 29.9 in NNW 2.2 mph 5.4 mph 98% 0 in 0 W/m2
21:04 43.7 °F 43.2 °F 29.9 in NNW 3.1 mph 5.4 mph 98% 0 in 0 W/m2
21:09 43.5 °F 43 °F 29.9 in NW 3.8 mph 5.4 mph 98% 0 in 0 W/m2
21:14 43.5 °F 43 °F 29.9 in NW 3.1 mph 6 mph 98% 0 in 0 W/m2
21:19 43.5 °F 43 °F 29.9 in NNW 3.1 mph 6 mph 98% 0 in 0 W/m2
21:24 43.3 °F 42.8 °F 29.9 in NW 3.8 mph 6 mph 98% 0 in 0 W/m2
21:29 43.3 °F 42.8 °F 29.9 in NNW 3.8 mph 6 mph 98% 0 in 0 W/m2
21:34 43.3 °F 42.8 °F 29.9 in NNW 3.1 mph 6 mph 98% 0 in 0 W/m2
21:39 43.3 °F 42.8 °F 29.9 in NNW 4.5 mph 6 mph 98% 0 in 0 W/m2
21:44 43.3 °F 42.8 °F 29.9 in NW 3.1 mph 6 mph 98% 0 in 0 W/m2
21:49 43.3 °F 42.8 °F 29.9 in NNW 3.8 mph 6 mph 98% 0 in 0 W/m2
21:54 43.3 °F 42.8 °F 29.9 in NNW 4.5 mph 6 mph 98% 0 in 0 W/m2
21:59 43.3 °F 42.8 °F 29.9 in NNW 3.8 mph 6 mph 98% 0 in 0 W/m2
22:04 43.3 °F 42.8 °F 29.9 in NNW 3.8 mph 6.9 mph 98% 0 in 0 W/m2
22:09 43.3 °F 42.8 °F 29.9 in NNW 3.8 mph 6.9 mph 98% 0 in 0 W/m2
22:14 43.2 °F 42.6 °F 29.9 in NNW 4.5 mph 6.9 mph 98% 0 in 0 W/m2
22:19 43 °F 42.4 °F 29.9 in NW 3.8 mph 6.9 mph 98% 0 in 0 W/m2
22:24 42.8 °F 42.3 °F 29.9 in NW 2.2 mph 6 mph 98% 0 in 0 W/m2
22:29 42.6 °F 42.4 °F 29.9 in NNW 3.8 mph 6 mph 99% 0 in 0 W/m2
22:34 42.6 °F 42.4 °F 29.9 in NNW 2.2 mph 4.5 mph 99% 0 in 0 W/m2
22:39 42.4 °F 42.3 °F 29.9 in NW 2.2 mph 4.5 mph 99% 0 in 0 W/m2
22:44 42.6 °F 42.4 °F 29.9 in NNW 3.1 mph 5.4 mph 99% 0 in 0 W/m2
22:49 42.8 °F 42.3 °F 29.9 in NNW 4.5 mph 6 mph 98% 0 in 0 W/m2
22:54 42.8 °F 42.3 °F 29.9 in NW 3.8 mph 6.9 mph 98% 0 in 0 W/m2
22:59 43 °F 42.4 °F 29.9 in NW 3.1 mph 6.9 mph 98% 0 in 0 W/m2
23:04 43 °F 42.4 °F 29.9 in NNW 3.1 mph 6.9 mph 98% 0 in 0 W/m2
23:09 43 °F 42.4 °F 29.9 in NNW 4.5 mph 6.9 mph 98% 0 in 0 W/m2
23:14 43 °F 42.4 °F 29.9 in NW 4.5 mph 6.9 mph 98% 0 in 0 W/m2
23:19 42.8 °F 42.3 °F 29.9 in NW 3.1 mph 6.9 mph 98% 0 in 0 W/m2
23:24 42.8 °F 42.3 °F 29.9 in NNW 3.8 mph 7.6 mph 98% 0 in 0 W/m2
23:29 42.6 °F 42.4 °F 29.9 in NNW 3.8 mph 7.6 mph 99% 0 in 0 W/m2
23:34 42.6 °F 42.4 °F 29.9 in NNW 3.8 mph 6 mph 99% 0 in 0 W/m2
23:39 42.4 °F 42.3 °F 29.9 in NNW 3.8 mph 7.6 mph 99% 0 in 0 W/m2
23:44 42.3 °F 42.1 °F 29.9 in NNW 4.5 mph 7.6 mph 99% 0 in 0 W/m2
23:49 42.3 °F 42.1 °F 29.9 in NNW 3.8 mph 7.6 mph 99% 0 in 0 W/m2
23:54 42.1 °F 41.7 °F 29.9 in NNW 2.2 mph 7.6 mph 99% 0 in 0 W/m2
23:59 42.1 °F 41.7 °F 29.9 in NNW 3.8 mph 5.4 mph 99% 0 in 0 W/m2
Northern Hawkes Bay. New Zealand Historic Data
Compliments of Weather Underground - 2.25 mb